Regional Weather Roundup
Issued by NWS Upton, NY

Current Version | Previous Version | Text Only | Print | Product List | Glossary Off
Versions: 1 2 3 4 5 6 7 8 9 10 11 12 13 14 15 16 17 18 19 20 21 22 23 24 25 26 27 28 29 30 31 32 33 34 35 36 37 38 39 40 41 42 43 44 45 46 47 48 49 50

963
ASUS41 KOKX 211908
RWROKX

REGIONAL WEATHER ROUNDUP
NATIONAL WEATHER SERVICE NEW YORK NY
200 PM EST SAT JAN 21 2017

NOTE: "FAIR" INDICATES FEW OR NO CLOUDS BELOW 12,000 FEET WITH NO
SIGNIFICANT WEATHER AND/OR OBSTRUCTIONS TO VISIBILITY.

NYZ071-072-176-178-NJZ106-104-212000-
NEW YORK CITY METRO AREA

CITY           SKY/WX    TMP DP  RH WIND       PRES   REMARKS
Central Park   SUNNY     48  43  82 CALM      29.83F
Wall St Helipt CLOUDY    45  42  89 W7        29.82F
LaGuardia APRT MOSUNNY   51  44  77 VRB6      29.80F
Kennedy INTL   CLOUDY    46  46 100 SW7       29.82F FOG
Breezy Point     N/A     43 N/A N/A W6          N/A
Newark/Liberty CLOUDY    47  43  86 SW8       29.81F
Teterboro      MOSUNNY   49  44  83 S8        29.80F
$$

NYZ177-179-078>081-212000-
LONG ISLAND NEW YORK

CITY           SKY/WX    TMP DP  RH WIND       PRES   REMARKS
Jones Beach      N/A     43 N/A N/A SW8         N/A
Matinecock PT  NOT AVBL
Farmingdale    SUNNY     52  44  74 W3        29.80F
MacArthur/ISP  PTSUNNY   49  44  83 S8        29.80F
Shirley        CLOUDY    46  44  93 S6        29.81F FOG
Westhampton    CLOUDY    46  42  86 VRB5      29.83F
Southampton    NOT AVBL
Bridgehampton  NOT AVBL
East Hampton   CLOUDY    46  42  87 W3        29.80F
Montauk          N/A     45  42  89 W5        29.82F
$$

NYZ052-065-067-212000-
HUDSON VALLEY

CITY           SKY/WX    TMP DP  RH WIND       PRES   REMARKS
White Plains   MOSUNNY   51  44  77 VRB3      29.78F
Newburgh       SUNNY     52  46  82 SW7       29.79F
Montgomery     SUNNY     54  45  71 SW10      29.75F
Poughkeepsie   SUNNY     51  43  74 SW5       29.77F
Albany         PTSUNNY   51  40  65 S3        29.77F
$$

NJZ001-105-106-008-010-013-015-019>022-104-212000-
NEW JERSEY

CITY           SKY/WX    TMP DP  RH WIND       PRES   REMARKS
Newark/Liberty CLOUDY    47  43  86 SW8       29.81F
Teterboro      MOSUNNY   49  44  83 S8        29.80F
Caldwell       MOSUNNY   48  43  82 W6        29.81S
Somerville     CLOUDY    47  43  86 CALM      29.80F
Linden         CLOUDY    46  43  90 W7        29.82F
Sussex         CLOUDY    46  44  93 SW3       29.79F
Andover          N/A     44  43  96 SW5       29.80F
Trenton        CLOUDY    46  45  96 SW6       29.82F FOG
Millville      CLOUDY    46  46 100 SW3       29.85F FOG
Atlantic City  CLOUDY    48  45  89 SW7       29.84F FOG
Wrightstown    CLOUDY    46  45  96 W7        29.81F FOG
Toms River     CLOUDY    47  46  97 W5        29.84F FOG
Belmar         CLOUDY    47  45  93 W6        29.83F FOG
$$

PAZ047>061-062-071-212000-
EASTERN PENNSYLVANIA

CITY           SKY/WX    TMP DP  RH WIND       PRES   REMARKS
Philadelphia   CLOUDY    46  44  93 SW6       29.84F FOG
Allentown      FOG       47  43  86 W5        29.82F VSB 1
Scranton       CLOUDY    46  45  96 W3        29.78F FOG
$$

CTZ002-004>006-009-010-012-RIZ004-006-007-MAZ004-011-015-212000-
SOUTHERN NEW ENGLAND
 IN CT

CITY           SKY/WX    TMP DP  RH WIND       PRES   REMARKS
Bradley INTL   MOSUNNY   53  43  68 S8        29.77F
Hartford       SUNNY     52  43  71 S6        29.77F
Danbury        CLOUDY    46  42  86 CALM      29.79F
Wtrbury/Oxford MOSUNNY   52  41  66 CALM      29.78F
Bridgeport     CLOUDY    48  42  80 SW8       29.79F
Meriden        PTSUNNY   52  42  69 SE8       29.78F
New Haven      CLOUDY    44  42  93 S8        29.79F FOG
Chester          N/A     50  43  76 CALM      29.79F
Groton         MOSUNNY   43  40  89 SW12      29.80F FOG
Wilimantic     SUNNY     54  44  69 SW5       29.77F

 IN RI

CITY           SKY/WX    TMP DP  RH WIND       PRES   REMARKS
Providence     MOSUNNY   53  42  66 W6        29.77F
Block Island   NOT AVBL
Westerly       MOSUNNY   46  39  76 SW8       29.80F
 IN MA

CITY           SKY/WX    TMP DP  RH WIND       PRES   REMARKS
Boston         MOSUNNY   52  42  69 W6        29.74F
Worcester      SUNNY     50  41  71 W14G22    29.74S
Westfield      SUNNY     53  42  66 S5        29.75F
Provincetown   CLOUDY    46  42  86 SW10      29.75F
Nantucket      CLOUDY    44  41  89 W15       29.78F FOG
$$

ANZ330-335-338-340-345-350-353-355-212000-
COASTAL MARINE OBSERVATIONS


STATION/POSITION TIME  SKY/WX   TEMP    WIND        PRES    VSBY  WAVE
                                AIR SEA DIR/SP/G                  HT/PER
                 (UTC)          (F)     (DEG/KT/KT) (MB)    (MI)  (FT/S)
NY HARB ENTRANCE 1750            44 44  310/  6/  8 1010.5          3/11
20 S FIRE ISLAND 1850            43 45  270/ 12/ 14 1009.9          3/11
GREAT SOUTH BAY  NOT AVBL
23 SSW MONTAUK P 1750            44 47  260/ 16/ 17 1010.9          4/11
15 E BARNEGAT LI 1830               47                N/A           3/11
HUDSON CANYON    1750            49 51              1010.9          4/11
KINGS POINT      1830            47 40              1009.2
EXECUTION ROCKS  1845            45     190/  8/  8   N/A
CENTRAL LI SOUND 1815            43     270/  6/  6   N/A           0
EASTERN LI SOUND NOT AVBL
ROBBINS REEF     1830            44     230/  5/  7 1009.9
$$


>>>>>>>>>>>>>>>>>>>>>>>>>>>> KEY <<<<<<<<<<<<<<<<<<<<<<<<<<<
>                                                          <
>     SKY/WX - Sky Condition/Present Weather               <
>     TMP    - Temperature in Fahrenheit                   <
>     DP     - Dew Point in Fahrenheit                     <
>     RH     - Relative Humidity in Percent                <
>     WIND   - Direction (from) and Speed in MPH           <
>     PRES   - Mean Sea Level Pressure (inches of Hg)      <
>     WCI    - Wind Chill Index                            <
>     VSB    - VISIBILITY IN MILES                         <
>     HX     - HEAT INDEX                                  <
>     TC     - TEMPERATURE IN CELSIUS                      <
>     VRB    - VARIABLE WIND DIRECTION                     <
>                                                          <
>>>>>>>>>>>>>>>>>>>>>>>>>>>> KEY <<<<<<<<<<<<<<<<<<<<<<<<<<<




USA.gov is the U.S. government's official web portal to all federal, state and local government web resources and services.